sat.trackr.live / text

‹ back to catalog

KUIPER-00409

NORAD 68925 · 2026-098G

PAYLOAD ACTIVE UNKNOWN

§ Identity

Operator
Country
US
Launch date
2026-04-30
Launch site
FRGUI
Launch vehicle
Mass (kg)
RCS (m²)

External: N2YO · Heavens-Above · Gunter

§ Orbital elements

Epoch: 2026-05-25T02:56:24.190080Z

Period
93.86 min
Inclination
51.8730°
Eccentricity
0.0008110
Mean motion
15.34156626 rev/d
Perigee alt
457.9 km
Apogee alt
469.0 km
Semi-major
6,841.6 km
B*
2.0263e-3
RAAN
178.9215°
Arg perigee
65.7655°
Mean anomaly
294.4177°
Rev number
380

§ Raw data

KUIPER-004091 68925U 26098G   26145.12250220  .00068303  00000+0  20263-2 0  99912 68925  51.8730 178.9215 0008110  65.7655 294.4177 15.34156626  3807

JSON: /api/v1/satellites/68925 · /tle

For live sub-satellite position, see the globe view (requires WebGL).

§ Visibility from observer

Set your observer location to see the next 7 days of passes ≥ 10°. The values pass through the URL so the page stays shareable.

No JS? Fill the form by hand. The geolocation button needs JavaScript.